Location: Abraham Lincoln Continuation High School
(33.9711°N, 117.3662°W)
Time: 05:06:21
(UTC+00:00)

Cosmos 1125 Rocket - Pass Details

Date: 21 September 2020
Orbit: 758 x 780 km, 74.0° (Epoch: 25 October)

Event Time Altitude Azimuth Distance (km) Brightness Sun altitude
Rises 03:42:28 0° 207° (SSW) 3,238 6.8 -24.2°
Reaches altitude 10° 03:44:53 10° 211° (SSW) 2,317 6.1 -24.6°
Maximum altitude 03:50:02 56° 289° (WNW) 926 4.1 -25.6°
Drops below altitude 10° 03:55:15 10° 8° (N) 2,336 6.1 -26.7°
Sets 03:57:42 0° 12° (NNE) 3,268 6.9 -27.1°
